XAASP MMLP-KSNA

Flight info

Callsign XAASP
Flight time 1h 56m
Altitude 38000
Route TULES J1 SQN UT64 TIJ J1 TEYON DCT OCN V23 SLI
Aircraft CL60/M-SBDE1E2E3FGHIJ1J4J5J7M3RWXYZ/LB1V1D1

Departure

Time 2026-04-23 20:25
Airport Manuel Márquez de León International Airport (MMLP)

Arrival

Time 2026-04-23 22:21
Airport John Wayne Orange County International Airport (KSNA)
Time Latitude Longitude Altitude Speed Heading
2026-04-23 20:02 24.07768 -110.36620 74 ft 0 kts 277°
2026-04-23 20:17 24.07767 -110.36617 74 ft 1 kts 295°
2026-04-23 20:17 24.07761 -110.36602 74 ft 2 kts 294°
2026-04-23 20:17 24.07755 -110.36587 74 ft 2 kts 294°
2026-04-23 20:17 24.07749 -110.36572 74 ft 1 kts 294°
2026-04-23 20:18 24.07747 -110.36566 74 ft 1 kts 268°
2026-04-23 20:18 24.07750 -110.36559 74 ft 0 kts 207°
2026-04-23 20:18 24.07756 -110.36558 74 ft 0 kts 186°
2026-04-23 20:19 24.07745 -110.36559 74 ft 3 kts 187°
2026-04-23 20:20 24.07709 -110.36564 74 ft 6 kts 187°
2026-04-23 20:20 24.07650 -110.36572 74 ft 10 kts 187°
2026-04-23 20:20 24.07575 -110.36583 74 ft 8 kts 188°
2026-04-23 20:20 24.07501 -110.36594 74 ft 12 kts 188°
2026-04-23 20:21 24.07435 -110.36596 74 ft 10 kts 154°
2026-04-23 20:21 24.07408 -110.36520 74 ft 12 kts 96°
2026-04-23 20:21 24.07382 -110.36442 74 ft 11 kts 136°
2026-04-23 20:21 24.07299 -110.36398 74 ft 14 kts 158°
2026-04-23 20:22 24.07196 -110.36352 74 ft 17 kts 158°
2026-04-23 20:22 24.07097 -110.36307 74 ft 15 kts 158°
2026-04-23 20:22 24.06982 -110.36296 74 ft 17 kts 187°
2026-04-23 20:22 24.06859 -110.36314 74 ft 17 kts 188°
2026-04-23 20:23 24.06732 -110.36333 74 ft 19 kts 188°
2026-04-23 20:23 24.06588 -110.36353 74 ft 21 kts 187°
2026-04-23 20:23 24.06430 -110.36376 74 ft 23 kts 188°
2026-04-23 20:23 24.06301 -110.36395 74 ft 14 kts 187°
2026-04-23 20:24 24.06223 -110.36433 74 ft 12 kts 236°
2026-04-23 20:24 24.06176 -110.36457 74 ft 8 kts 143°
2026-04-23 20:24 24.06175 -110.36414 74 ft 7 kts 30°
2026-04-23 20:24 24.06456 -110.36372 74 ft 84 kts
2026-04-23 20:25 24.07253 -110.36256 77 ft 144 kts
2026-04-23 20:25 24.08308 -110.36104 573 ft 156 kts
2026-04-23 20:25 24.09442 -110.35991 1037 ft 177 kts
2026-04-23 20:25 24.10720 -110.35878 1631 ft 193 kts
2026-04-23 20:26 24.12085 -110.35747 2266 ft 205 kts
2026-04-23 20:26 24.13636 -110.35600 2603 ft 242 kts
2026-04-23 20:26 24.15378 -110.35435 3339 ft 261 kts
2026-04-23 20:26 24.17205 -110.35297 4268 ft 270 kts 357°
2026-04-23 20:27 24.19020 -110.35845 5232 ft 275 kts 329°
2026-04-23 20:27 24.20629 -110.36979 6238 ft 281 kts 325°
2026-04-23 20:27 24.22264 -110.38154 7283 ft 285 kts 325°
2026-04-23 20:27 24.23939 -110.39352 8327 ft 290 kts 325°
2026-04-23 20:28 24.25614 -110.40549 9335 ft 294 kts 324°
2026-04-23 20:28 24.27334 -110.41779 10368 ft 297 kts 324°
2026-04-23 20:28 24.29096 -110.43040 10977 ft 316 kts 323°
2026-04-23 20:28 24.30982 -110.44392 11637 ft 330 kts 323°
2026-04-23 20:29 24.32940 -110.45790 12517 ft 337 kts 323°
2026-04-23 20:29 24.34907 -110.47195 13461 ft 340 kts 324°
2026-04-23 20:29 24.36876 -110.48601 14404 ft 342 kts 324°
2026-04-23 20:29 24.38864 -110.50021 15304 ft 344 kts 324°
2026-04-23 20:30 24.40875 -110.51459 16170 ft 347 kts 325°
2026-04-23 20:30 24.44915 -110.54346 17796 ft 352 kts 325°
2026-04-23 20:30 24.47026 -110.55743 18562 ft 356 kts 331°
2026-04-23 20:31 24.49245 -110.56903 19209 ft 362 kts 332°
2026-04-23 20:31 24.51542 -110.58086 19857 ft 367 kts 332°
2026-04-23 20:31 24.53859 -110.59282 20490 ft 372 kts 332°
2026-04-23 20:31 24.56198 -110.60491 21117 ft 376 kts 332°
2026-04-23 20:32 24.58595 -110.61731 21743 ft 381 kts 331°
2026-04-23 20:32 24.61005 -110.62978 22350 ft 385 kts 331°
2026-04-23 20:32 24.63445 -110.64243 22942 ft 389 kts 331°
2026-04-23 20:32 24.65897 -110.65514 23518 ft 393 kts 330°
2026-04-23 20:33 24.68367 -110.66795 24101 ft 396 kts 330°
2026-04-23 20:33 24.70873 -110.68096 24666 ft 400 kts 330°
2026-04-23 20:33 24.73374 -110.69395 25203 ft 403 kts 330°
2026-04-23 20:33 24.75920 -110.70718 25746 ft 406 kts 330°
2026-04-23 20:34 24.78488 -110.72054 26250 ft 408 kts 330°
2026-04-23 20:34 24.81047 -110.73385 26722 ft 411 kts 329°
2026-04-23 20:34 24.83618 -110.74724 27153 ft 413 kts 329°
2026-04-23 20:34 24.86220 -110.76080 27569 ft 416 kts 329°
2026-04-23 20:35 24.88837 -110.77443 27965 ft 418 kts 329°
2026-04-23 20:35 24.91478 -110.78820 28337 ft 421 kts 329°
2026-04-23 20:35 24.94154 -110.80217 28699 ft 424 kts 329°
2026-04-23 20:35 24.96830 -110.81613 29067 ft 426 kts 329°
2026-04-23 20:36 24.99493 -110.83004 29443 ft 428 kts 329°
2026-04-23 20:36 25.02194 -110.84415 29789 ft 430 kts 329°
2026-04-23 20:36 25.04891 -110.85825 30126 ft 432 kts 329°
2026-04-23 20:36 25.07642 -110.87264 30456 ft 434 kts 329°
2026-04-23 20:37 25.10365 -110.88689 30777 ft 436 kts 329°
2026-04-23 20:37 25.13095 -110.90118 31085 ft 437 kts 329°
2026-04-23 20:37 25.15824 -110.91547 31365 ft 439 kts 329°
2026-04-23 20:37 25.18585 -110.92996 31632 ft 441 kts 329°
2026-04-23 20:38 25.21394 -110.94468 31903 ft 443 kts 329°
2026-04-23 20:38 25.24168 -110.95924 32137 ft 445 kts 329°
2026-04-23 20:38 25.26972 -110.97396 32377 ft 447 kts 329°
2026-04-23 20:38 25.29779 -110.98870 32615 ft 448 kts 329°
2026-04-23 20:39 25.32594 -111.00349 32895 ft 448 kts 328°
2026-04-23 20:39 25.35406 -111.01826 33218 ft 448 kts 328°
2026-04-23 20:39 25.38195 -111.03291 33558 ft 446 kts 328°
2026-04-23 20:39 25.40971 -111.04752 33896 ft 444 kts 328°
2026-04-23 20:40 25.43780 -111.06230 34222 ft 443 kts 328°
2026-04-23 20:40 25.46558 -111.07692 34525 ft 442 kts 328°
2026-04-23 20:40 25.49335 -111.09155 34839 ft 441 kts 328°
2026-04-23 20:40 25.52105 -111.10616 35139 ft 439 kts 328°
2026-04-23 20:41 25.54838 -111.12058 35412 ft 439 kts 328°
2026-04-23 20:41 25.57617 -111.13524 35700 ft 438 kts 328°
2026-04-23 20:41 25.60351 -111.14967 35979 ft 437 kts 328°
2026-04-23 20:41 25.63074 -111.16406 36239 ft 436 kts 328°
2026-04-23 20:42 25.65811 -111.17853 36494 ft 435 kts 328°
2026-04-23 20:42 25.68532 -111.19292 36767 ft 434 kts 328°
2026-04-23 20:42 25.71227 -111.20718 37011 ft 433 kts 328°
2026-04-23 20:42 25.73968 -111.22169 37264 ft 432 kts 328°
2026-04-23 20:43 25.76671 -111.23601 37510 ft 431 kts 328°
2026-04-23 20:43 25.79393 -111.25043 37740 ft 430 kts 328°
2026-04-23 20:43 25.82092 -111.26474 37959 ft 429 kts 328°
2026-04-23 20:43 25.84776 -111.27899 38028 ft 433 kts 328°
2026-04-23 20:44 25.90260 -111.30815 38047 ft 440 kts 328°
2026-04-23 20:44 25.95742 -111.33859 38044 ft 439 kts 322°
2026-04-23 20:45 26.00449 -111.38023 38042 ft 426 kts 308°
2026-04-23 20:45 26.04336 -111.42905 38039 ft 421 kts 305°
2026-04-23 20:46 26.08197 -111.47812 38040 ft 420 kts 305°
2026-04-23 20:46 26.12040 -111.52701 38042 ft 421 kts 305°
2026-04-23 20:47 26.15900 -111.57617 38042 ft 421 kts 305°
2026-04-23 20:47 26.19747 -111.62521 38042 ft 421 kts 305°
2026-04-23 20:48 26.23588 -111.67423 38043 ft 422 kts 305°
2026-04-23 20:48 26.27466 -111.72376 38043 ft 422 kts 305°
2026-04-23 20:49 26.31302 -111.77280 38044 ft 421 kts 305°
2026-04-23 20:49 26.35147 -111.82201 38046 ft 421 kts 305°
2026-04-23 20:50 26.38985 -111.87120 38048 ft 420 kts 305°
2026-04-23 20:50 26.42804 -111.92020 38050 ft 420 kts 305°
2026-04-23 20:51 26.46634 -111.96939 38049 ft 420 kts 305°
2026-04-23 20:51 26.50484 -112.01888 38048 ft 420 kts 305°
2026-04-23 20:52 26.54306 -112.06808 38048 ft 420 kts 305°
2026-04-23 20:52 26.58110 -112.11710 38048 ft 420 kts 304°
2026-04-23 20:53 26.61917 -112.16621 38048 ft 419 kts 304°
2026-04-23 20:53 26.65746 -112.21566 38047 ft 419 kts 304°
2026-04-23 20:54 26.69562 -112.26499 38048 ft 419 kts 304°
2026-04-23 20:54 26.73361 -112.31416 38049 ft 419 kts 304°
2026-04-23 20:55 26.77165 -112.36346 38047 ft 418 kts 304°
2026-04-23 20:55 26.80938 -112.41241 38048 ft 418 kts 304°
2026-04-23 20:56 26.84738 -112.46175 38048 ft 418 kts 304°
2026-04-23 20:56 26.88526 -112.51100 38046 ft 418 kts 304°
2026-04-23 20:57 26.92322 -112.56041 38055 ft 417 kts 304°
2026-04-23 20:57 26.96093 -112.60955 38062 ft 417 kts 304°
2026-04-23 20:58 26.99886 -112.65904 38068 ft 417 kts 303°
2026-04-23 20:58 27.03647 -112.70817 38074 ft 417 kts 303°
2026-04-23 20:59 27.07433 -112.75767 38074 ft 417 kts 303°
2026-04-23 20:59 27.11204 -112.80703 38075 ft 416 kts 303°
2026-04-23 21:00 27.14968 -112.85635 38069 ft 416 kts 303°
2026-04-23 21:00 27.18734 -112.90576 38065 ft 416 kts 303°
2026-04-23 21:01 27.22481 -112.95498 38061 ft 416 kts 303°
2026-04-23 21:01 27.26240 -113.00442 38057 ft 416 kts 303°
2026-04-23 21:02 27.29977 -113.05362 38054 ft 416 kts 303°
2026-04-23 21:02 27.33722 -113.10298 38055 ft 415 kts 303°
2026-04-23 21:03 27.37482 -113.15259 38053 ft 415 kts 303°
2026-04-23 21:03 27.41216 -113.20193 38053 ft 415 kts 303°
2026-04-23 21:04 27.44954 -113.25136 38054 ft 414 kts 302°
2026-04-23 21:04 27.48678 -113.30067 38054 ft 414 kts 302°
2026-04-23 21:05 27.52405 -113.35009 38052 ft 414 kts 302°
2026-04-23 21:05 27.56112 -113.39928 38059 ft 415 kts 302°
2026-04-23 21:06 27.59843 -113.44887 38064 ft 415 kts 302°
2026-04-23 21:06 27.63584 -113.49863 38067 ft 415 kts 302°
2026-04-23 21:07 27.67308 -113.54822 38072 ft 415 kts 302°
2026-04-23 21:07 27.71035 -113.59792 38074 ft 415 kts 302°
2026-04-23 21:08 27.74762 -113.64768 38073 ft 415 kts 302°
2026-04-23 21:08 27.78465 -113.69717 38074 ft 415 kts 301°
2026-04-23 21:09 27.82174 -113.74679 38072 ft 414 kts 301°
2026-04-23 21:09 27.85883 -113.79646 38073 ft 414 kts 301°
2026-04-23 21:10 27.89592 -113.84621 38073 ft 414 kts 301°
2026-04-23 21:10 27.93314 -113.89617 38072 ft 414 kts 301°
2026-04-23 21:11 27.96989 -113.94556 38072 ft 413 kts 301°
2026-04-23 21:11 28.00696 -113.99540 38072 ft 414 kts 302°
2026-04-23 21:12 28.05060 -114.04001 38073 ft 432 kts 315°
2026-04-23 21:12 28.10066 -114.07742 38073 ft 434 kts 316°
2026-04-23 21:13 28.15120 -114.11515 38072 ft 433 kts 316°
2026-04-23 21:13 28.20124 -114.15255 38065 ft 433 kts 316°
2026-04-23 21:14 28.25188 -114.19044 38056 ft 433 kts 316°
2026-04-23 21:14 28.30202 -114.22802 38087 ft 434 kts 316°
2026-04-23 21:15 28.32732 -114.24698 38354 ft 431 kts 316°
2026-04-23 21:15 28.35227 -114.26566 38714 ft 427 kts 316°
2026-04-23 21:15 28.37711 -114.28429 39051 ft 422 kts 316°
2026-04-23 21:15 28.40129 -114.30243 39328 ft 420 kts 316°
2026-04-23 21:16 28.42573 -114.32079 39554 ft 418 kts 316°
2026-04-23 21:16 28.44980 -114.33890 39732 ft 417 kts 316°
2026-04-23 21:16 28.47407 -114.35718 39886 ft 417 kts 316°
2026-04-23 21:16 28.49799 -114.37521 40019 ft 417 kts 315°
2026-04-23 21:17 28.54688 -114.41212 40024 ft 424 kts 315°
2026-04-23 21:17 28.59621 -114.44938 40025 ft 429 kts 315°
2026-04-23 21:18 28.64601 -114.48700 40021 ft 430 kts 315°
2026-04-23 21:18 28.69561 -114.52449 40019 ft 429 kts 315°
2026-04-23 21:19 28.74524 -114.56206 40018 ft 427 kts 315°
2026-04-23 21:19 28.79479 -114.59961 40018 ft 427 kts 315°
2026-04-23 21:20 28.84412 -114.63705 40018 ft 426 kts 315°
2026-04-23 21:20 28.89367 -114.67470 40021 ft 426 kts 315°
2026-04-23 21:21 28.94288 -114.71213 40019 ft 426 kts 314°
2026-04-23 21:21 28.99219 -114.74967 40018 ft 425 kts 314°
2026-04-23 21:22 29.04135 -114.78715 40018 ft 424 kts 314°
2026-04-23 21:22 29.09054 -114.82471 40018 ft 423 kts 314°
2026-04-23 21:23 29.13935 -114.86201 40018 ft 423 kts 314°
2026-04-23 21:23 29.18830 -114.89947 40018 ft 423 kts 314°
2026-04-23 21:24 29.23727 -114.93698 40019 ft 423 kts 314°
2026-04-23 21:24 29.28609 -114.97443 40018 ft 422 kts 314°
2026-04-23 21:25 29.33515 -115.01210 40018 ft 422 kts 314°
2026-04-23 21:25 29.38407 -115.04971 40018 ft 422 kts 314°
2026-04-23 21:26 29.43275 -115.08717 40018 ft 422 kts 314°
2026-04-23 21:26 29.48157 -115.12479 40017 ft 422 kts 314°
2026-04-23 21:27 29.53001 -115.16215 40016 ft 421 kts 313°
2026-04-23 21:27 29.57892 -115.19994 40018 ft 422 kts 313°
2026-04-23 21:28 29.62760 -115.23758 40017 ft 422 kts 313°
2026-04-23 21:28 29.67607 -115.27510 40017 ft 422 kts 313°
2026-04-23 21:29 29.72490 -115.31295 40017 ft 422 kts 313°
2026-04-23 21:29 29.77323 -115.35045 40017 ft 421 kts 313°
2026-04-23 21:30 29.82211 -115.38842 40017 ft 421 kts 313°
2026-04-23 21:30 29.87055 -115.42610 40017 ft 420 kts 313°
2026-04-23 21:31 29.91873 -115.46362 40016 ft 420 kts 313°
2026-04-23 21:31 29.96737 -115.50154 40015 ft 420 kts 313°
2026-04-23 21:32 30.01546 -115.53909 40022 ft 420 kts 312°
2026-04-23 21:32 30.06389 -115.57694 40016 ft 420 kts 312°
2026-04-23 21:33 30.11255 -115.61500 40015 ft 418 kts 312°
2026-04-23 21:33 30.16060 -115.65265 40015 ft 418 kts 312°
2026-04-23 21:34 30.20872 -115.69041 40018 ft 420 kts 312°
2026-04-23 21:34 30.25723 -115.72852 40016 ft 420 kts 312°
2026-04-23 21:35 30.30546 -115.76644 40015 ft 420 kts 312°
2026-04-23 21:35 30.35383 -115.80452 40017 ft 420 kts 312°
2026-04-23 21:36 30.42615 -115.86153 40014 ft 420 kts 312°
2026-04-23 21:37 30.47479 -115.89994 40014 ft 419 kts 312°
2026-04-23 21:37 30.52297 -115.93803 40017 ft 418 kts 312°
2026-04-23 21:38 30.57501 -115.97115 40024 ft 437 kts 322°
2026-04-23 21:38 30.63061 -115.99966 40033 ft 438 kts 322°
2026-04-23 21:39 30.68637 -116.02835 40039 ft 438 kts 322°
2026-04-23 21:39 30.74203 -116.05703 40045 ft 438 kts 322°
2026-04-23 21:40 30.79772 -116.08576 40049 ft 438 kts 322°
2026-04-23 21:40 30.85369 -116.11468 40053 ft 438 kts 322°
2026-04-23 21:41 30.90916 -116.14339 40058 ft 438 kts 322°
2026-04-23 21:41 30.96491 -116.17226 40062 ft 438 kts 322°
2026-04-23 21:42 31.02086 -116.20129 40061 ft 438 kts 322°
2026-04-23 21:42 31.07627 -116.23006 40060 ft 437 kts 322°
2026-04-23 21:43 31.13201 -116.25905 40059 ft 435 kts 322°
2026-04-23 21:43 31.18729 -116.28784 40060 ft 435 kts 322°
2026-04-23 21:44 31.24231 -116.31654 40060 ft 435 kts 322°
2026-04-23 21:44 31.29799 -116.34560 40059 ft 435 kts 322°
2026-04-23 21:45 31.35318 -116.37447 40059 ft 436 kts 322°
2026-04-23 21:45 31.40875 -116.40356 40060 ft 436 kts 322°
2026-04-23 21:46 31.46401 -116.43253 40060 ft 436 kts 322°
2026-04-23 21:46 31.51913 -116.46142 40060 ft 435 kts 322°
2026-04-23 21:47 31.57446 -116.49046 40060 ft 435 kts 322°
2026-04-23 21:47 31.62949 -116.51937 40059 ft 435 kts 322°
2026-04-23 21:48 31.68468 -116.54842 40058 ft 435 kts 322°
2026-04-23 21:48 31.74016 -116.57764 40061 ft 435 kts 322°
2026-04-23 21:49 31.79523 -116.60658 40062 ft 437 kts 323°
2026-04-23 21:49 31.85233 -116.63321 40065 ft 441 kts 325°
2026-04-23 21:50 31.90958 -116.65958 40068 ft 441 kts 324°
2026-04-23 21:50 31.96672 -116.68595 40066 ft 441 kts 324°
2026-04-23 21:51 32.02407 -116.71245 40066 ft 440 kts 325°
2026-04-23 21:51 32.08075 -116.73868 40063 ft 438 kts 325°
2026-04-23 21:52 32.13712 -116.76481 40063 ft 438 kts 325°
2026-04-23 21:52 32.19392 -116.79118 40064 ft 438 kts 326°
2026-04-23 21:53 32.25058 -116.81753 40065 ft 438 kts 326°
2026-04-23 21:53 32.30764 -116.84409 40063 ft 439 kts 326°
2026-04-23 21:54 32.36467 -116.87067 40059 ft 440 kts 326°
2026-04-23 21:54 32.39311 -116.88397 39812 ft 446 kts 326°
2026-04-23 21:54 32.42233 -116.89766 39262 ft 448 kts 326°
2026-04-23 21:54 32.45112 -116.91109 38690 ft 446 kts 326°
2026-04-23 21:55 32.48002 -116.92457 38100 ft 444 kts 326°
2026-04-23 21:55 32.50848 -116.93831 37516 ft 439 kts 324°
2026-04-23 21:55 32.53513 -116.95512 36934 ft 429 kts 317°
2026-04-23 21:55 32.55930 -116.97559 36366 ft 421 kts 310°
2026-04-23 21:56 32.58077 -116.99850 35801 ft 419 kts 307°
2026-04-23 21:56 32.60357 -117.02084 35262 ft 432 kts 315°
2026-04-23 21:56 32.62981 -117.03958 34684 ft 445 kts 323°
2026-04-23 21:56 32.65720 -117.05642 34089 ft 449 kts 323°
2026-04-23 21:57 32.68503 -117.07353 33492 ft 451 kts 324°
2026-04-23 21:57 32.71308 -117.09081 32887 ft 453 kts 324°
2026-04-23 21:57 32.74081 -117.10789 32290 ft 454 kts 324°
2026-04-23 21:57 32.76898 -117.12526 31687 ft 455 kts 324°
2026-04-23 21:58 32.79717 -117.14265 31079 ft 456 kts 325°
2026-04-23 21:58 32.82508 -117.15989 30478 ft 457 kts 325°
2026-04-23 21:58 32.85325 -117.17728 29869 ft 455 kts 325°
2026-04-23 21:58 32.88134 -117.19463 29262 ft 450 kts 325°
2026-04-23 21:59 32.90913 -117.21180 28662 ft 445 kts 326°
2026-04-23 21:59 32.93610 -117.22848 28082 ft 440 kts 326°
2026-04-23 21:59 32.96325 -117.24529 27497 ft 436 kts 326°
2026-04-23 22:00 33.01664 -117.27840 26348 ft 428 kts 327°
2026-04-23 22:00 33.04280 -117.29463 25785 ft 424 kts 327°
2026-04-23 22:00 33.06901 -117.31091 25221 ft 420 kts 327°
2026-04-23 22:00 33.09479 -117.32694 24666 ft 416 kts 327°
2026-04-23 22:01 33.12012 -117.34270 24118 ft 412 kts 327°
2026-04-23 22:01 33.14534 -117.35841 23575 ft 408 kts 327°
2026-04-23 22:01 33.17026 -117.37393 23039 ft 404 kts 327°
2026-04-23 22:01 33.19503 -117.38937 22504 ft 400 kts 327°
2026-04-23 22:02 33.21986 -117.40487 21969 ft 397 kts 328°
2026-04-23 22:02 33.24323 -117.42160 21446 ft 387 kts 317°
2026-04-23 22:02 33.26260 -117.44299 20934 ft 380 kts 311°
2026-04-23 22:02 33.28149 -117.46515 20433 ft 377 kts 312°
2026-04-23 22:03 33.30020 -117.48698 19936 ft 374 kts 312°
2026-04-23 22:03 33.31866 -117.50852 19443 ft 371 kts 312°
2026-04-23 22:03 33.33707 -117.53002 18952 ft 368 kts 312°
2026-04-23 22:03 33.35533 -117.55135 18446 ft 366 kts 312°
2026-04-23 22:04 33.37343 -117.57250 17967 ft 362 kts 312°
2026-04-23 22:04 33.39148 -117.59361 17484 ft 360 kts 312°
2026-04-23 22:04 33.40947 -117.61465 17005 ft 357 kts 312°
2026-04-23 22:04 33.42709 -117.63529 16534 ft 356 kts 312°
2026-04-23 22:05 33.44472 -117.65594 16064 ft 354 kts 312°
2026-04-23 22:05 33.46248 -117.67675 15587 ft 352 kts 312°
2026-04-23 22:05 33.47980 -117.69707 15123 ft 350 kts 312°
2026-04-23 22:05 33.49710 -117.71738 14668 ft 348 kts 312°
2026-04-23 22:06 33.51434 -117.73763 14198 ft 346 kts 312°
2026-04-23 22:06 33.53142 -117.75771 13734 ft 339 kts 312°
2026-04-23 22:06 33.54813 -117.77734 13291 ft 331 kts 313°
2026-04-23 22:06 33.56426 -117.79631 12847 ft 324 kts 313°
2026-04-23 22:07 33.58020 -117.81506 12425 ft 315 kts 313°
2026-04-23 22:07 33.59552 -117.83308 12015 ft 307 kts 313°
2026-04-23 22:07 33.61070 -117.85094 11610 ft 299 kts 313°
2026-04-23 22:07 33.62540 -117.86824 11220 ft 293 kts 314°
2026-04-23 22:08 33.63980 -117.88522 10836 ft 288 kts 314°
2026-04-23 22:08 33.65390 -117.90185 10461 ft 284 kts 314°
2026-04-23 22:08 33.66560 -117.92066 10082 ft 280 kts 292°
2026-04-23 22:08 33.67072 -117.94310 9725 ft 282 kts 282°
2026-04-23 22:09 33.67458 -117.96643 9215 ft 287 kts 281°
2026-04-23 22:09 33.67838 -117.99030 8600 ft 291 kts 281°
2026-04-23 22:09 33.68208 -118.01417 8074 ft 289 kts 281°
2026-04-23 22:09 33.68547 -118.03760 7580 ft 288 kts 276°
2026-04-23 22:10 33.68292 -118.06129 7070 ft 285 kts 247°
2026-04-23 22:10 33.67118 -118.07994 6565 ft 282 kts 217°
2026-04-23 22:10 33.65360 -118.08928 6137 ft 276 kts 193°
2026-04-23 22:10 33.63456 -118.09303 6019 ft 277 kts 178°
2026-04-23 22:11 33.61638 -118.08689 6019 ft 275 kts 147°
2026-04-23 22:11 33.60341 -118.07048 6024 ft 273 kts 116°
2026-04-23 22:11 33.59882 -118.04845 6025 ft 272 kts 94°
2026-04-23 22:11 33.59781 -118.02557 6025 ft 273 kts 91°
2026-04-23 22:12 33.59929 -118.00321 6004 ft 272 kts 71°
2026-04-23 22:12 33.60928 -117.98404 5792 ft 270 kts 41°
2026-04-23 22:12 33.62442 -117.97124 5541 ft 268 kts 32°
2026-04-23 22:12 33.64030 -117.95953 5292 ft 268 kts 31°
2026-04-23 22:13 33.65631 -117.94780 5051 ft 268 kts 31°
2026-04-23 22:13 33.67223 -117.93613 5005 ft 268 kts 31°
2026-04-23 22:13 33.68819 -117.92443 5010 ft 269 kts 31°
2026-04-23 22:13 33.70425 -117.91266 5011 ft 270 kts 31°
2026-04-23 22:14 33.72031 -117.90089 5010 ft 270 kts 31°
2026-04-23 22:14 33.73632 -117.88916 5010 ft 270 kts 31°
2026-04-23 22:14 33.75208 -117.87761 5011 ft 255 kts 31°
2026-04-23 22:14 33.76658 -117.86698 5012 ft 234 kts 31°
2026-04-23 22:15 33.78022 -117.85698 4680 ft 228 kts 31°
2026-04-23 22:15 33.79344 -117.84726 4304 ft 220 kts 31°
2026-04-23 22:15 33.80624 -117.83783 4037 ft 208 kts 31°
2026-04-23 22:15 33.81820 -117.82900 3960 ft 196 kts 31°
2026-04-23 22:16 33.83016 -117.82011 3745 ft 206 kts 31°
2026-04-23 22:16 33.84185 -117.81024 3359 ft 207 kts 45°
2026-04-23 22:16 33.84747 -117.79476 3018 ft 198 kts 89°
2026-04-23 22:16 33.84290 -117.78073 2988 ft 184 kts 135°
2026-04-23 22:17 33.83107 -117.77525 3004 ft 190 kts 183°
2026-04-23 22:17 33.81834 -117.77956 3064 ft 189 kts 202°
2026-04-23 22:17 33.80629 -117.78604 3015 ft 189 kts 207°
2026-04-23 22:17 33.79476 -117.79322 2774 ft 189 kts 208°
2026-04-23 22:18 33.78355 -117.80035 2337 ft 171 kts 208°
2026-04-23 22:18 33.77393 -117.80646 2181 ft 143 kts 208°
2026-04-23 22:18 33.76511 -117.81208 2087 ft 145 kts 208°
2026-04-23 22:18 33.75629 -117.81769 1709 ft 143 kts 208°
2026-04-23 22:19 33.74767 -117.82310 1330 ft 136 kts 207°
2026-04-23 22:19 33.73931 -117.82816 1200 ft 134 kts 206°
2026-04-23 22:19 33.73094 -117.83329 1139 ft 135 kts 208°
2026-04-23 22:19 33.72267 -117.83876 1026 ft 135 kts 209°
2026-04-23 22:20 33.71440 -117.84417 851 ft 135 kts 208°
2026-04-23 22:20 33.70620 -117.84956 645 ft 134 kts 208°
2026-04-23 22:20 33.69796 -117.85471 484 ft 133 kts 208°
2026-04-23 22:20 33.68984 -117.85988 305 ft 131 kts 208°
2026-04-23 22:21 33.68181 -117.86495 108 ft 129 kts 207°
2026-04-23 22:21 33.67489 -117.86935 64 ft 89 kts 208°
2026-04-23 22:21 33.67133 -117.87161 64 ft 28 kts 207°
2026-04-23 22:21 33.67031 -117.87219 64 ft 9 kts 194°
2026-04-23 22:22 33.66973 -117.87215 64 ft 10 kts 160°
2026-04-23 22:22 33.66925 -117.87178 64 ft 7 kts 131°
2026-04-23 22:22 33.66904 -117.87124 64 ft 5 kts 96°
2026-04-23 22:22 33.66929 -117.87073 64 ft 9 kts 37°
2026-04-23 22:23 33.66986 -117.87016 64 ft 11 kts 41°
2026-04-23 22:23 33.67036 -117.86964 64 ft 10 kts 40°
2026-04-23 22:23 33.67088 -117.86910 64 ft 9 kts 41°
2026-04-23 22:23 33.67145 -117.86858 64 ft 9 kts 34°
2026-04-23 22:24 33.67203 -117.86816 64 ft 10 kts 26°
2026-04-23 22:24 33.67254 -117.86784 64 ft 6 kts 26°
2026-04-23 22:24 33.67296 -117.86746 64 ft 7 kts 46°
2026-04-23 22:24 33.67302 -117.86699 64 ft 6 kts 142°
2026-04-23 22:25 33.67277 -117.86688 64 ft 7 kts 176°
2026-04-23 22:25 33.67211 -117.86711 64 ft 4 kts 205°
2026-04-23 22:25 33.67183 -117.86729 64 ft 2 kts 208°
2026-04-23 22:25 33.67178 -117.86732 64 ft 0 kts 209°